www.pogodaiklimat.ru

Погода и климат >> Архив погоды >> Россия >> Краснодарский край >> Краснодар


АРХИВ ПОГОДЫ в Краснодаре

Время (UTC), дата Ветер
(напр.,м/с)
 
Видим.   Явления Облачность Т
(С)
Тd
(С)
f
(%)
Тe
(С)
Тes
(С)
Комфортность P
(гПа)
Po
(гПа)
Тmin
(С)
Tmax
(С)
R
(мм)
R24
(мм)
S
(см)
12 12.01 З 3 10 км {ливн. осадки} 10/8 1000 м
[Sc diur, vesp Ac trans]
+3.4 -1.1 72 -0 -0 по сезону 1012.9 1008.6
15 12.01 СЗ 2 10 км 10/10 1000 м
[Sc diur, vesp]
+2.4 -1.3 77 -1 -1 по сезону 1012.3 1008.0 +7.7 0.0
18 12.01 СВ 2 10 км 10/10 600 м
[Sc diur, vesp]
+1.7 -0.9 83 -2 -2 по сезону 1011.2 1006.9
21 12.01 СВ 1 10 км {дождь} 10/10 1500 м
[Sc diur, vesp]
+1.5 +0.2 91 -0 -0 по сезону 1009.8 1005.5
00 13.01 В 2 4000 м слаб. дождь 10/10 100 м
[Frnb Ns]
+2.2 +1.3 94 -1 -1 по сезону 1008.7 1004.4
03 13.01 З 4 4000 м слаб. дождь 10/10 200 м
[Frnb Ns]
+2.5 +1.7 94 -3 -3 по сезону 1008.4 1004.1 +1.5 9
06 13.01 Ю 2 4000 м слаб. дождь 10/10 200 м
[Cb cap]
+1.1 +0.2 94 -3 -3 по сезону 1009.5 1005.2 +1.0
09 13.01 ЮЗ 2 10 км {дождь} 10/10 300 м
[Cb cap]
+2.5 +1.4 92 -1 -1 по сезону 1009.6 1005.3
12 13.01 З 3 10 км {дождь} 10/10 300 м
[Cb cap]
+2.2 -0.6 82 -2 -2 по сезону 1009.7 1005.4
15 13.01 СЗ 1 10 км 10/10 300 м
[Cb cap]
+1.0 -1.7 82 -1 -1 по сезону 1009.9 1005.6 +3.2 3
18 13.01 СЗ 2 10 км 10/10 300 м
[Cb cap]
+0.4 -2.1 83 -3 -3 по сезону 1010.0 1005.6
21 13.01 В 2 10 км 10/10 300 м
[Cb cap]
+0.1 -2.3 84 -3 -3 по сезону 1009.6 1005.2
00 14.01 СВ 2 10 км 10/10 300 м
[Cb cap]
+0.3 -1.3 89 -3 -3 по сезону 1008.5 1004.2
03 14.01 В 4 10 км 10/10 300 м
[Cb cap]
+0.9 -0.7 89 -4 -4 по сезону 1006.6 1002.3 0.0
06 14.01 СВ 1 10 км 10/10 300 м
[St]
+1.0 -0.2 92 -1 -1 по сезону 1006.3 1002.0
09 14.01 В 2 4000 м слаб. дождь 10/10 200 м
[Frnb Ns]
+2.4 +1.1 91 -1 -1 по сезону 1005.4 1001.1
12 14.01 В 2 4000 м слаб. дождь 10/10 300 м
[Frnb Ns]
+3.6 +2.8 94 +1 +1 по сезону 1004.2 999.9
15 14.01 В 4 10 км в посл. час дождь 10/10 300 м
[Frnb Ns]
+2.9 +1.9 93 -2 -2 по сезону 1003.5 999.2 +3.9 6
18 14.01 В 2 10 км {дождь} 5/5 1000 м
[Sc]
+2.0 +0.8 92 -1 -1 по сезону 1002.9 998.6
21 14.01 С 2 10 км в посл. час ливневой дождь 8/8 1000 м
[Cb cap]
+3.2 +2.0 92 0 0 по сезону 1003.4 999.1
00 15.01 ЮЗ 3 10 км в посл. час ливневой дождь 10/10 1000 м
[Cb cap]
+6.0 +4.2 88 +3 +3 тепло 1004.2 1000.0
03 15.01 ЮВ 3 4000 м слаб. ливневой дождь 10/10 600 м
[Cb cap]
+4.4 +3.2 92 +1 +1 по сезону 1004.5 1000.2 +1.9 5
06 15.01 В 2 4000 м в посл. час ливневой дождь 10/10 1000 м
[Cb cap]
+5.3 +4.1 92 +3 +3 тепло 1005.0 1000.7
09 15.01 СВ 2 4000 м в посл. час ливневой дождь 10/10 1000 м
[Cb cap]
+6.7 +4.7 87 +4 +4 тепло 1004.6 1000.4
12 15.01 Ю 1 10 км в посл. час ливневой дождь 10/8 1000 м
[Cb cap]
+8.3 +4.8 79 +8 +8 тепло 1003.4 999.2
15 15.01 СВ 4 10 км {ливн. осадки} 10/5 1500 м
[Sc diur, vesp Ac und]
+6.8 +4.1 83 +3 +3 по сезону 1001.7 997.5 +8.6 0.6
18 15.01 СВ 3 4000 м слаб. ливневой дождь 10/10 600 м
[Cb cap]
+6.1 +4.1 87 +3 +3 тепло 1000.3 996.1
21 15.01 В 4 4000 м слаб. ливневой дождь 10/10 600 м
[Cb cap]
+5.7 +4.2 90 +2 +2 тепло 998.3 994.1
00 16.01 В 2 4000 м слаб. ливневой дождь 10/10 600 м
[Cb cap]
+5.3 +4.3 93 +3 +3 тепло 996.3 992.1
03 16.01 Ю 4 4000 м слаб. ливневой дождь 10/10 600 м
[Cb cap]
+4.5 +3.8 95 0 0 по сезону 995.8 991.6 +4.1 16
06 16.01 З 7-10
{14}
4000 м слаб. ливневой снег 10/10 300 м
[Cb cap]
-0.3 -1.1 94 -8 -8 прохладно 1003.7 999.4 -0.3
09 16.01 З 6 10 км {ливн. осадки} 10/10 300 м
[Cb cap]
+0.2 -1.4 89 -6 -6 прохладно 1007.8 1003.5
12 16.01 З 4 10 км {ливн. осадки} 10/6 1000 м
[Sc diur, vesp Ac As]
+0.5 -3.1 77 -5 -5 холодно 1010.1 1005.7
15 16.01 З 2 10 км 10/3 1000 м
[Sc Ac und Ci fib]
+0.2 -3.1 78 -3 -3 по сезону 1011.4 1007.0 +5.4 4
18 16.01 Ю 2 10 км 10/0
[Ac und]
-0.8 -2.8 86 -5 -5 прохладно 1012.2 1007.8
21 16.01 В 3 10 км 10/0
[Ac trans Ci fib]
-0.7 -3.2 83 -5 -5 по сезону 1012.6 1008.2
00 17.01 В 2 10 км 10/0
[Ac trans Ci fib]
-1.0 -3.6 82 -5 -5 по сезону 1013.4 1009.0
03 17.01 В 2 10 км 4/0
[Ac trans]
-1.8 -3.4 89 -6 -6 по сезону 1014.3 1009.9 -1.8
06 17.01 СВ 2 10 км 6/3 1000 м
[Sc Ac trans Ci fib]
-1.2 -3.2 86 -5 -5 по сезону 1016.3 1011.9 -2.2
09 17.01 СВ 3 10 км 1/0
[Ac trans]
+2.2 -2.3 72 -2 +1 по сезону 1017.6 1013.2
12 17.01 В 3 10 км 1/0
[Ac trans]
+4.4 -4.6 52 +1 +3 по сезону 1018.1 1013.8
15 17.01 СВ 2 10 км ясно +1.1 -3.1 74 -2 -2 по сезону 1020.0 1015.6 +4.7
18 17.01 В 1 10 км ясно -1.0 -3.9 81 -3 -3 по сезону 1021.3 1016.9
21 17.01 В 1 10 км ясно -2.5 -3.7 91 -5 -5 по сезону 1022.2 1017.7
00 18.01 Ю 1 10 км ясно -3.7 -4.7 93 -6 -6 по сезону 1022.8 1018.3
03 18.01 В 1 10 км ясно -3.2 -4.4 91 -6 -6 по сезону 1022.1 1017.6 -4.4
06 18.01 В 1 10 км 3/3 1000 м
[Sc]
-1.2 -3.0 88 -3 -3 по сезону 1022.8 1018.4
09 18.01 В 3 10 км 3/3 1000 м
[Sc Ac trans]
+5.2 0.0 69 +2 +4 по сезону 1022.2 1017.9
12 18.01 Ю 7
{12}
10 км 3/3 1000 м
[Sc Ac trans]
+8.7 0.0 54 +5 +5 тепло 1020.7 1016.4
15 18.01 Ю 3 10 км 3/3 1000 м
[Sc Ac trans]
+3.6 -0.5 75 -0 -0 по сезону 1021.1 1016.8 +8.8
18 18.01 ЮВ 1 10 км 1/0
[Ac trans]
+1.0 -0.6 89 -1 -1 по сезону 1021.1 1016.7
21 18.01 В 1 10 км ясно -0.8 -2.4 89 -3 -3 по сезону 1020.9 1016.5
00 19.01 СВ 2 10 км ясно +0.1 -1.3 90 -4 -4 по сезону 1020.2 1015.8
03 19.01 В 2 10 км 3/0
[Ac trans]
-1.6 -3.3 88 -6 -6 по сезону 1019.9 1015.5 -1.7
06 19.01 Ю 2 10 км 8/0
[Ac trans]
-0.7 -2.4 88 -4 -4 по сезону 1020.0 1015.6

 

Местоположение метеостанции Краснодар (Краснодарский край, Россия): широта 45.05 долгота 39.03 высота над уровнем моря 29 м.

В архиве по умолчанию представлена погода в Краснодаре за последнюю неделю. Архивные данные за месяц целиком и за предыдущие месяцы, начиная с января 2011 года, Вы можете получить, выбрав интересующий диапазон дат из раскрывающегося списка и нажав кнопку "Ввод!".


*Определитесь, кто Вы:
робот инопланетянин человек

Внимание! Время в таблицах - всемирное. Для получения местного времени необходимо прибавить поправку, которая равна 3 ч.

Смотрите также архив погоды в соседних городах и на ближайших метеорологических станциях:

Погода в Горячем Ключе (Краснодарский край, Россия) (47 км)
Погода в Усть-Лабинске (Краснодарский край, Россия) (58 км)
Погода в Кореновске (Краснодарский край, Россия) (59 км)
Погода в Тимашевске (Краснодарский край, Россия) (65 км)
Погода в Славянске-на-Кубани (Краснодарский край, Россия) (76 км)
Погода в Белореченске (Краснодарский край, Россия) (76 км)
Погода в Крымске (Краснодарский край, Россия) (82 км)
Погода в Джубге (Краснодарский край, Россия) (84 км)
Погода в Горном (Краснодарский край, Россия) (88 км)
Погода в Геленджике (Краснодарский край, Россия) (92 км)

Пояснения к столбцам:

Ветер - указаны скорость ветра в м/с - средняя за 10 мин, порывы в срок и между сроками (в фигурных скобках) и направление, откуда дует ветер: С - северный, СВ - северо-восточный, В - восточный, ЮВ - юго-восточный, Ю - южный, ЮЗ - юго-западный, З - западный, СЗ - северо-западный.
Видимость - горизонтальная дальность видимости в метрах или километрах. При видимости от 1 до 10 км при отсутствии осадков обычно наблюдается дымка, при ухудшении видимости до 1 км и менее - туман. В сухую погоду видимость может ухудшаться дымом, пылью или мглою.
Явления - указаны атмосферные явления, наблюдавшиеся в срок или в последний час перед сроком; фигурными скобками обозначены явления, наблюдавшиеся между сроками (за 1-3 часа до срока); квадратными скобками обозначены град или гололедные отложения с указанием их диаметра в мм.
Облачность - указаны через наклонную черту общая и нижняя облачность в баллах и высота нижней границы облаков в метрах; квадратными скобками обозначены формы облаков: Ci - перистые, Cs - перисто-слоистые, Cc - перисто-кучевые, Ac - высококучевые, As - высокослоистые, Sc - слоисто-кучевые, Ns - слоисто-дождевые, Cu - кучевые, Cb - кучево-дождевые. Подробнее классификацию облаков см. в Атласе облаков (PDF).
T - Температура воздуха - температура, измеренная на высоте 2 м над землей.
Td - Температура точки росы - температура, при понижении до которой содержащийся в воздухе водяной пар достигнет насыщения.
f - Относительная влажность воздуха - влажноcть воздуха, измеренная на высоте 2 м над землей.
Te - Эффективная температура - температура, которую ощущает одетый по сезону человек в тени. Характеристика душности погоды. При расчете учитывается влияние влажности воздуха и скорости ветра на теплоощущения человека.
Tes - Эффективная температура на солнце - температура, которую ощущает человек, с поправкой на солнечный нагрев. Характеристика знойности погоды. Зависит от высоты солнца над горизонтом, облачности и скорости ветра. Ночью, в пасмурную погоду, а также при ветре 12 м/с и более поправка равна нулю.
P - Атмосферное давление - приведенное к уровню моря атмосферное давление.
Po - Атмосферное давление - измеренное на уровне метеостанции атмосферное давление.
Tmin - Минимальная температура - минимум температуры воздуха на высоте 2 м над землей.
Tmax - Максимальная температура - максимум температуры воздуха на высоте 2 м над землей.
R - Количество осадков - Количество выпавших осадков за период времени, мм. При наведении курсора мыши на число - период времени, за который выпало указанное количество осадков.
R24 - Количество осадков - Количество выпавших осадков за 24 часа, мм.
S - Снежный покров - Высота снежного покрова, см. При наведении курсора мыши на число - состояние снежного покрова и степень покрытия местности в баллах.